Wetterdaten: Donnerstag, 17.10.2013
Datum Zeit Temperatur Luftfeuchte Luftdruck Regen Wind Richtung Richtung Sonnenschein ET UV Solar Taupunkt Windchill Windben
17.10.2013 00:00 9,0 C 93 % 1012,7 hPa 0,0 l/m 0,0 km/h (0 Bft) NO 50 0 min 0,000 mm 0,0 UV-I 0 W/m 7,9 C 9,0 C 1,6 km/h (1 Bft)
17.10.2013 00:05 9,1 C 93 % 1012,6 hPa 0,0 l/m 0,4 km/h (0 Bft) NO 48 0 min 0,000 mm 0,0 UV-I 0 W/m 8,0 C 9,1 C 3,2 km/h (1 Bft)
17.10.2013 00:10 9,0 C 93 % 1012,6 hPa 0,0 l/m 0,1 km/h (0 Bft) NO 51 0 min 0,000 mm 0,0 UV-I 0 W/m 7,9 C 9,0 C 1,6 km/h (1 Bft)
17.10.2013 00:15 8,9 C 93 % 1012,6 hPa 0,0 l/m 0,0 km/h (0 Bft) NO 51 0 min 0,000 mm 0,0 UV-I 0 W/m 7,8 C 8,9 C 0,0 km/h (0 Bft)
17.10.2013 00:20 8,8 C 93 % 1012,6 hPa 0,0 l/m 0,0 km/h (0 Bft) NO 51 0 min 0,000 mm 0,0 UV-I 0 W/m 7,7 C 8,8 C 1,6 km/h (1 Bft)
17.10.2013 00:25 8,8 C 93 % 1012,6 hPa 0,0 l/m 0,0 km/h (0 Bft) NO 51 0 min 0,000 mm 0,0 UV-I 0 W/m 7,7 C 8,8 C 1,6 km/h (1 Bft)
17.10.2013 00:30 8,8 C 93 % 1012,6 hPa 0,0 l/m 0,1 km/h (0 Bft) NO 53 0 min 0,000 mm 0,0 UV-I 0 W/m 7,7 C 8,8 C 1,6 km/h (1 Bft)
17.10.2013 00:35 8,8 C 93 % 1012,6 hPa 0,0 l/m 1,1 km/h (1 Bft) S 182 0 min 0,000 mm 0,0 UV-I 0 W/m 7,7 C 8,8 C 6,4 km/h (2 Bft)
17.10.2013 00:40 8,8 C 94 % 1012,6 hPa 0,2 l/m 1,4 km/h (1 Bft) SW 221 0 min 0,000 mm 0,0 UV-I 0 W/m 7,9 C 8,8 C 6,4 km/h (2 Bft)
17.10.2013 00:45 8,8 C 94 % 1012,7 hPa 0,0 l/m 3,3 km/h (1 Bft) W-SW 238 0 min 0,000 mm 0,0 UV-I 0 W/m 7,9 C 8,8 C 9,7 km/h (2 Bft)
17.10.2013 00:50 8,9 C 94 % 1012,6 hPa 0,0 l/m 1,5 km/h (1 Bft) S-SO 167 0 min 0,000 mm 0,0 UV-I 0 W/m 8,0 C 8,9 C 8,0 km/h (2 Bft)
17.10.2013 00:55 8,9 C 93 % 1012,6 hPa 0,0 l/m 2,4 km/h (1 Bft) S-SW 213 0 min 0,000 mm 0,0 UV-I 0 W/m 7,8 C 8,9 C 11,3 km/h (2 Bft)
17.10.2013 01:00 8,9 C 93 % 1012,7 hPa 0,0 l/m 1,9 km/h (1 Bft) S-SW 205 0 min 0,000 mm 0,0 UV-I 0 W/m 7,8 C 8,9 C 11,3 km/h (2 Bft)
17.10.2013 01:05 8,9 C 93 % 1012,8 hPa 0,0 l/m 3,8 km/h (1 Bft) SW 236 0 min 0,000 mm 0,0 UV-I 0 W/m 7,8 C 8,9 C 9,7 km/h (2 Bft)
17.10.2013 01:10 9,0 C 93 % 1012,8 hPa 0,0 l/m 4,1 km/h (1 Bft) SW 234 0 min 0,000 mm 0,0 UV-I 0 W/m 7,9 C 9,0 C 12,9 km/h (3 Bft)
17.10.2013 01:15 9,0 C 94 % 1012,8 hPa 0,0 l/m 2,8 km/h (1 Bft) W-SW 255 0 min 0,000 mm 0,0 UV-I 0 W/m 8,1 C 9,0 C 9,7 km/h (2 Bft)
17.10.2013 01:20 8,9 C 94 % 1012,7 hPa 0,0 l/m 0,9 km/h (0 Bft) SW 228 0 min 0,000 mm 0,0 UV-I 0 W/m 8,0 C 8,9 C 6,4 km/h (2 Bft)
17.10.2013 01:25 8,9 C 94 % 1012,6 hPa 0,0 l/m 1,0 km/h (0 Bft) W 275 0 min 0,000 mm 0,0 UV-I 0 W/m 8,0 C 8,9 C 6,4 km/h (2 Bft)
17.10.2013 01:30 8,9 C 94 % 1012,4 hPa 0,2 l/m 1,1 km/h (1 Bft) W-SW 252 0 min 0,000 mm 0,0 UV-I 0 W/m 8,0 C 8,9 C 4,8 km/h (1 Bft)
17.10.2013 01:35 8,9 C 94 % 1012,3 hPa 0,0 l/m 0,3 km/h (0 Bft) S 173 0 min 0,000 mm 0,0 UV-I 0 W/m 8,0 C 8,9 C 3,2 km/h (1 Bft)
17.10.2013 01:40 8,9 C 94 % 1012,4 hPa 0,0 l/m 0,0 km/h (0 Bft) S 173 0 min 0,000 mm 0,0 UV-I 0 W/m 8,0 C 8,9 C 1,6 km/h (1 Bft)
17.10.2013 01:45 8,9 C 94 % 1012,4 hPa 0,0 l/m 0,0 km/h (0 Bft) S 173 0 min 0,000 mm 0,0 UV-I 0 W/m 8,0 C 8,9 C 1,6 km/h (1 Bft)
17.10.2013 01:50 8,9 C 94 % 1012,5 hPa 0,0 l/m 0,4 km/h (0 Bft) SW 229 0 min 0,000 mm 0,0 UV-I 0 W/m 8,0 C 8,9 C 3,2 km/h (1 Bft)
17.10.2013 01:55 8,9 C 94 % 1012,4 hPa 0,0 l/m 1,6 km/h (1 Bft) W-SW 252 0 min 0,000 mm 0,0 UV-I 0 W/m 8,0 C 8,9 C 4,8 km/h (1 Bft)
17.10.2013 02:00 8,9 C 94 % 1012,4 hPa 0,0 l/m 2,3 km/h (1 Bft) W 260 0 min 0,000 mm 0,0 UV-I 0 W/m 8,0 C 8,9 C 8,0 km/h (2 Bft)
17.10.2013 02:05 8,9 C 94 % 1012,4 hPa 0,0 l/m 3,7 km/h (1 Bft) SW 235 0 min 0,000 mm 0,0 UV-I 0 W/m 8,0 C 8,9 C 9,7 km/h (2 Bft)
17.10.2013 02:10 8,9 C 94 % 1012,3 hPa 0,0 l/m 2,2 km/h (1 Bft) SW 235 0 min 0,000 mm 0,0 UV-I 0 W/m 8,0 C 8,9 C 8,0 km/h (2 Bft)
17.10.2013 02:15 8,9 C 94 % 1012,3 hPa 0,0 l/m 1,3 km/h (1 Bft) W-SW 252 0 min 0,000 mm 0,0 UV-I 0 W/m 8,0 C 8,9 C 8,0 km/h (2 Bft)
17.10.2013 02:20 9,0 C 94 % 1012,4 hPa 0,0 l/m 1,9 km/h (1 Bft) S-SW 199 0 min 0,000 mm 0,0 UV-I 0 W/m 8,1 C 9,0 C 6,4 km/h (2 Bft)
17.10.2013 02:25 9,0 C 94 % 1012,4 hPa 0,0 l/m 3,0 km/h (1 Bft) W-SW 252 0 min 0,000 mm 0,0 UV-I 0 W/m 8,1 C 9,0 C 9,7 km/h (2 Bft)
17.10.2013 02:30 9,0 C 94 % 1012,3 hPa 0,0 l/m 1,8 km/h (1 Bft) SW 217 0 min 0,000 mm 0,0 UV-I 0 W/m 8,1 C 9,0 C 11,3 km/h (2 Bft)
17.10.2013 02:35 9,0 C 94 % 1012,4 hPa 0,0 l/m 3,1 km/h (1 Bft) SW 236 0 min 0,000 mm 0,0 UV-I 0 W/m 8,1 C 9,0 C 8,0 km/h (2 Bft)
17.10.2013 02:40 9,0 C 94 % 1012,4 hPa 0,0 l/m 1,9 km/h (1 Bft) W 262 0 min 0,000 mm 0,0 UV-I 0 W/m 8,1 C 9,0 C 6,4 km/h (2 Bft)
17.10.2013 02:45 9,0 C 94 % 1012,5 hPa 0,0 l/m 3,0 km/h (1 Bft) W-SW 254 0 min 0,000 mm 0,0 UV-I 0 W/m 8,1 C 9,0 C 8,0 km/h (2 Bft)
17.10.2013 02:50 9,0 C 94 % 1012,4 hPa 0,0 l/m 1,7 km/h (1 Bft) W-SW 247 0 min 0,000 mm 0,0 UV-I 0 W/m 8,1 C 9,0 C 6,4 km/h (2 Bft)
17.10.2013 02:55 9,1 C 94 % 1012,3 hPa 0,0 l/m 2,1 km/h (1 Bft) W-NW 284 0 min 0,000 mm 0,0 UV-I 0 W/m 8,2 C 9,1 C 6,4 km/h (2 Bft)
17.10.2013 03:00 9,0 C 94 % 1012,3 hPa 0,0 l/m 1,2 km/h (1 Bft) W-SW 241 0 min 0,000 mm 0,0 UV-I 0 W/m 8,1 C 9,0 C 4,8 km/h (1 Bft)
17.10.2013 03:05 9,0 C 94 % 1012,3 hPa 0,0 l/m 1,6 km/h (1 Bft) W 259 0 min 0,000 mm 0,0 UV-I 0 W/m 8,1 C 9,0 C 6,4 km/h (2 Bft)
17.10.2013 03:10 9,1 C 94 % 1012,2 hPa 0,0 l/m 0,8 km/h (0 Bft) W-SW 254 0 min 0,000 mm 0,0 UV-I 0 W/m 8,2 C 9,1 C 4,8 km/h (1 Bft)
17.10.2013 03:15 9,1 C 94 % 1012,3 hPa 0,0 l/m 0,6 km/h (0 Bft) SW 229 0 min 0,000 mm 0,0 UV-I 0 W/m 8,2 C 9,1 C 3,2 km/h (1 Bft)
17.10.2013 03:20 9,1 C 94 % 1012,3 hPa 0,0 l/m 2,6 km/h (1 Bft) W 261 0 min 0,000 mm 0,0 UV-I 0 W/m 8,2 C 9,1 C 6,4 km/h (2 Bft)
17.10.2013 03:25 9,1 C 94 % 1012,5 hPa 0,0 l/m 2,3 km/h (1 Bft) W-SW 246 0 min 0,000 mm 0,0 UV-I 0 W/m 8,2 C 9,1 C 8,0 km/h (2 Bft)
17.10.2013 03:30 9,1 C 94 % 1012,4 hPa 0,0 l/m 1,6 km/h (1 Bft) W-NW 287 0 min 0,000 mm 0,0 UV-I 0 W/m 8,2 C 9,1 C 6,4 km/h (2 Bft)
17.10.2013 03:35 9,1 C 94 % 1012,6 hPa 0,0 l/m 0,9 km/h (0 Bft) W 280 0 min 0,000 mm 0,0 UV-I 0 W/m 8,2 C 9,1 C 6,4 km/h (2 Bft)
17.10.2013 03:40 9,1 C 94 % 1012,6 hPa 0,0 l/m 2,2 km/h (1 Bft) W-NW 285 0 min 0,000 mm 0,0 UV-I 0 W/m 8,2 C 9,1 C 4,8 km/h (1 Bft)
17.10.2013 03:45 9,1 C 94 % 1012,7 hPa 0,0 l/m 2,7 km/h (1 Bft) W 266 0 min 0,000 mm 0,0 UV-I 0 W/m 8,2 C 9,1 C 6,4 km/h (2 Bft)
17.10.2013 03:50 9,1 C 94 % 1012,3 hPa 0,0 l/m 0,9 km/h (0 Bft) W-SW 244 0 min 0,000 mm 0,0 UV-I 0 W/m 8,2 C 9,1 C 6,4 km/h (2 Bft)
17.10.2013 03:55 9,1 C 94 % 1012,2 hPa 0,0 l/m 0,3 km/h (0 Bft) W-SW 244 0 min 0,000 mm 0,0 UV-I 0 W/m 8,2 C 9,1 C 3,2 km/h (1 Bft)
17.10.2013 04:00 9,0 C 94 % 1012,2 hPa 0,0 l/m 0,0 km/h (0 Bft) W-SW 244 0 min 0,000 mm 0,0 UV-I 0 W/m 8,1 C 9,0 C 0,0 km/h (0 Bft)
17.10.2013 04:05 9,0 C 94 % 1012,4 hPa 0,0 l/m 0,0 km/h (0 Bft) W-SW 244 0 min 0,000 mm 0,0 UV-I 0 W/m 8,1 C 9,0 C 0,0 km/h (0 Bft)
17.10.2013 04:10 9,0 C 94 % 1012,5 hPa 0,0 l/m 0,1 km/h (0 Bft) W-SW 244 0 min 0,000 mm 0,0 UV-I 0 W/m 8,1 C 9,0 C 1,6 km/h (1 Bft)
17.10.2013 04:15 9,0 C 94 % 1012,5 hPa 0,0 l/m 0,0 km/h (0 Bft) W-SW 244 0 min 0,000 mm 0,0 UV-I 0 W/m 8,1 C 9,0 C 1,6 km/h (1 Bft)
17.10.2013 04:20 9,1 C 94 % 1012,3 hPa 0,0 l/m 0,8 km/h (0 Bft) W 264 0 min 0,000 mm 0,0 UV-I 0 W/m 8,2 C 9,1 C 4,8 km/h (1 Bft)
17.10.2013 04:25 9,1 C 94 % 1012,4 hPa 0,0 l/m 0,2 km/h (0 Bft) W 264 0 min 0,000 mm 0,0 UV-I 0 W/m 8,2 C 9,1 C 3,2 km/h (1 Bft)
17.10.2013 04:30 9,1 C 94 % 1012,4 hPa 0,0 l/m 0,0 km/h (0 Bft) W 264 0 min 0,000 mm 0,0 UV-I 0 W/m 8,2 C 9,1 C 0,0 km/h (0 Bft)
17.10.2013 04:35 9,1 C 94 % 1012,3 hPa 0,0 l/m 0,0 km/h (0 Bft) W 264 0 min 0,000 mm 0,0 UV-I 0 W/m 8,2 C 9,1 C 1,6 km/h (1 Bft)
17.10.2013 04:40 9,1 C 94 % 1012,5 hPa 0,0 l/m 0,3 km/h (0 Bft) W 264 0 min 0,000 mm 0,0 UV-I 0 W/m 8,2 C 9,1 C 3,2 km/h (1 Bft)
17.10.2013 04:45 9,1 C 94 % 1012,5 hPa 0,0 l/m 0,6 km/h (0 Bft) W 264 0 min 0,000 mm 0,0 UV-I 0 W/m 8,2 C 9,1 C 3,2 km/h (1 Bft)
17.10.2013 04:50 9,1 C 94 % 1012,5 hPa 0,0 l/m 0,2 km/h (0 Bft) W 264 0 min 0,000 mm 0,0 UV-I 0 W/m 8,2 C 9,1 C 3,2 km/h (1 Bft)
17.10.2013 04:55 9,1 C 94 % 1012,6 hPa 0,0 l/m 0,0 km/h (0 Bft) W 264 0 min 0,000 mm 0,0 UV-I 0 W/m 8,2 C 9,1 C 1,6 km/h (1 Bft)
17.10.2013 05:00 9,1 C 94 % 1012,5 hPa 0,0 l/m 0,1 km/h (0 Bft) W 264 0 min 0,000 mm 0,0 UV-I 0 W/m 8,2 C 9,1 C 3,2 km/h (1 Bft)
17.10.2013 05:05 9,1 C 94 % 1012,6 hPa 0,0 l/m 0,3 km/h (0 Bft) W 264 0 min 0,000 mm 0,0 UV-I 0 W/m 8,2 C 9,1 C 3,2 km/h (1 Bft)
17.10.2013 05:10 9,1 C 94 % 1012,6 hPa 0,0 l/m 0,0 km/h (0 Bft) W 264 0 min 0,000 mm 0,0 UV-I 0 W/m 8,2 C 9,1 C 1,6 km/h (1 Bft)
17.10.2013 05:15 9,1 C 94 % 1012,6 hPa 0,0 l/m 0,0 km/h (0 Bft) W 264 0 min 0,000 mm 0,0 UV-I 0 W/m 8,2 C 9,1 C 1,6 km/h (1 Bft)
17.10.2013 05:20 9,1 C 94 % 1012,6 hPa 0,0 l/m 0,0 km/h (0 Bft) W 264 0 min 0,000 mm 0,0 UV-I 0 W/m 8,2 C 9,1 C 0,0 km/h (0 Bft)
17.10.2013 05:25 9,1 C 94 % 1012,6 hPa 0,0 l/m 0,2 km/h (0 Bft) W 264 0 min 0,000 mm 0,0 UV-I 0 W/m 8,2 C 9,1 C 3,2 km/h (1 Bft)
17.10.2013 05:30 9,1 C 94 % 1012,7 hPa 0,0 l/m 0,1 km/h (0 Bft) W 264 0 min 0,000 mm 0,0 UV-I 0 W/m 8,2 C 9,1 C 1,6 km/h (1 Bft)
17.10.2013 05:35 9,1 C 94 % 1012,7 hPa 0,0 l/m 0,0 km/h (0 Bft) W 264 0 min 0,000 mm 0,0 UV-I 0 W/m 8,2 C 9,1 C 1,6 km/h (1 Bft)
17.10.2013 05:40 9,1 C 94 % 1012,7 hPa 0,0 l/m 0,0 km/h (0 Bft) W 264 0 min 0,000 mm 0,0 UV-I 0 W/m 8,2 C 9,1 C 0,0 km/h (0 Bft)
17.10.2013 05:45 9,0 C 94 % 1012,7 hPa 0,0 l/m 0,2 km/h (0 Bft) W 264 0 min 0,000 mm 0,0 UV-I 0 W/m 8,1 C 9,0 C 1,6 km/h (1 Bft)
17.10.2013 05:50 9,1 C 95 % 1012,6 hPa 0,0 l/m 0,0 km/h (0 Bft) W 264 0 min 0,000 mm 0,0 UV-I 0 W/m 8,3 C 9,1 C 0,0 km/h (0 Bft)
17.10.2013 05:55 9,1 C 95 % 1012,6 hPa 0,0 l/m 0,0 km/h (0 Bft) W 264 0 min 0,000 mm 0,0 UV-I 0 W/m 8,3 C 9,1 C 0,0 km/h (0 Bft)
17.10.2013 06:00 9,1 C 95 % 1012,7 hPa 0,0 l/m 0,1 km/h (0 Bft) W 264 0 min 0,000 mm 0,0 UV-I 0 W/m 8,3 C 9,1 C 1,6 km/h (1 Bft)
17.10.2013 06:05 9,3 C 95 % 1012,6 hPa 0,0 l/m 0,7 km/h (0 Bft) W 265 0 min 0,000 mm 0,0 UV-I 0 W/m 8,5 C 9,3 C 4,8 km/h (1 Bft)
17.10.2013 06:10 9,3 C 95 % 1012,6 hPa 0,0 l/m 0,2 km/h (0 Bft) W 265 0 min 0,000 mm 0,0 UV-I 0 W/m 8,5 C 9,3 C 3,2 km/h (1 Bft)
17.10.2013 06:15 9,4 C 95 % 1012,7 hPa 0,0 l/m 3,0 km/h (1 Bft) W-NW 302 0 min 0,000 mm 0,0 UV-I 0 W/m 8,6 C 9,4 C 8,0 km/h (2 Bft)
17.10.2013 06:20 9,6 C 95 % 1012,8 hPa 0,0 l/m 2,6 km/h (1 Bft) W-NW 292 0 min 0,000 mm 0,0 UV-I 0 W/m 8,8 C 9,6 C 6,4 km/h (2 Bft)
17.10.2013 06:25 9,6 C 95 % 1012,7 hPa 0,0 l/m 3,1 km/h (1 Bft) W 272 0 min 0,000 mm 0,0 UV-I 0 W/m 8,8 C 9,6 C 8,0 km/h (2 Bft)
17.10.2013 06:30 9,7 C 94 % 1012,7 hPa 0,0 l/m 3,9 km/h (1 Bft) W-NW 297 0 min 0,000 mm 0,0 UV-I 0 W/m 8,8 C 9,7 C 6,4 km/h (2 Bft)
17.10.2013 06:35 9,8 C 94 % 1012,6 hPa 0,0 l/m 5,5 km/h (1 Bft) W 278 0 min 0,000 mm 0,0 UV-I 0 W/m 8,9 C 9,8 C 11,3 km/h (2 Bft)
17.10.2013 06:40 9,8 C 93 % 1012,7 hPa 0,0 l/m 4,8 km/h (1 Bft) W-NW 298 0 min 0,000 mm 0,0 UV-I 0 W/m 8,7 C 9,8 C 9,7 km/h (2 Bft)
17.10.2013 06:45 9,9 C 93 % 1012,7 hPa 0,0 l/m 6,2 km/h (2 Bft) W-NW 300 0 min 0,000 mm 0,0 UV-I 0 W/m 8,8 C 9,9 C 12,9 km/h (3 Bft)
17.10.2013 06:50 10,0 C 92 % 1012,7 hPa 0,0 l/m 5,3 km/h (1 Bft) W 281 0 min 0,000 mm 0,0 UV-I 0 W/m 8,8 C 10,0 C 9,7 km/h (2 Bft)
17.10.2013 06:55 10,1 C 92 % 1012,7 hPa 0,0 l/m 6,1 km/h (2 Bft) W-NW 291 0 min 0,000 mm 0,0 UV-I 0 W/m 8,9 C 10,1 C 14,5 km/h (3 Bft)
17.10.2013 07:00 10,1 C 92 % 1012,7 hPa 0,0 l/m 5,6 km/h (1 Bft) W-NW 296 0 min 0,000 mm 0,0 UV-I 0 W/m 8,9 C 10,1 C 9,7 km/h (2 Bft)
17.10.2013 07:05 10,1 C 92 % 1012,8 hPa 0,0 l/m 5,6 km/h (1 Bft) W 277 0 min 0,000 mm 0,0 UV-I 0 W/m 8,9 C 10,1 C 9,7 km/h (2 Bft)
17.10.2013 07:10 10,1 C 92 % 1012,8 hPa 0,0 l/m 6,2 km/h (2 Bft) W-NW 290 0 min 0,000 mm 0,0 UV-I 0 W/m 8,9 C 10,1 C 11,3 km/h (2 Bft)
17.10.2013 07:15 10,1 C 91 % 1012,9 hPa 0,0 l/m 6,3 km/h (2 Bft) N-NW 337 0 min 0,000 mm 0,0 UV-I 0 W/m 8,7 C 10,1 C 11,3 km/h (2 Bft)
17.10.2013 07:20 10,1 C 91 % 1013,0 hPa 0,0 l/m 6,0 km/h (2 Bft) W-NW 294 0 min 0,000 mm 0,0 UV-I 0 W/m 8,7 C 10,1 C 11,3 km/h (2 Bft)
17.10.2013 07:25 10,1 C 91 % 1013,1 hPa 0,0 l/m 4,9 km/h (1 Bft) W-NW 290 0 min 0,000 mm 0,0 UV-I 0 W/m 8,7 C 10,1 C 11,3 km/h (2 Bft)
17.10.2013 07:30 10,1 C 92 % 1013,1 hPa 0,0 l/m 5,7 km/h (1 Bft) SW 236 0 min 0,000 mm 0,0 UV-I 0 W/m 8,9 C 10,1 C 12,9 km/h (3 Bft)
17.10.2013 07:35 10,1 C 91 % 1013,1 hPa 0,0 l/m 3,2 km/h (1 Bft) SW 234 0 min 0,000 mm 0,0 UV-I 0 W/m 8,7 C 10,1 C 8,0 km/h (2 Bft)
17.10.2013 07:40 10,1 C 91 % 1013,2 hPa 0,0 l/m 3,2 km/h (1 Bft) W 276 0 min 0,000 mm 0,0 UV-I 0 W/m 8,7 C 10,1 C 9,7 km/h (2 Bft)
17.10.2013 07:45 10,1 C 91 % 1013,3 hPa 0,0 l/m 4,2 km/h (1 Bft) SW 233 0 min 0,000 mm 0,0 UV-I 0 W/m 8,7 C 10,1 C 16,1 km/h (3 Bft)
17.10.2013 07:50 10,1 C 91 % 1013,2 hPa 0,0 l/m 5,4 km/h (1 Bft) SW 232 0 min 0,000 mm 0,0 UV-I 0 W/m 8,7 C 10,1 C 9,7 km/h (2 Bft)
17.10.2013 07:55 10,1 C 91 % 1013,3 hPa 0,0 l/m 4,4 km/h (1 Bft) W 273 0 min 0,000 mm 0,0 UV-I 0 W/m 8,7 C 10,1 C 9,7 km/h (2 Bft)
17.10.2013 08:00 10,1 C 91 % 1013,3 hPa 0,0 l/m 4,9 km/h (1 Bft) W-NW 284 0 min 0,000 mm 0,0 UV-I 0 W/m 8,7 C 10,1 C 12,9 km/h (3 Bft)
17.10.2013 08:05 10,1 C 91 % 1013,4 hPa 0,0 l/m 7,8 km/h (2 Bft) W 281 0 min 0,000 mm 0,0 UV-I 5 W/m 8,7 C 9,1 C 19,3 km/h (3 Bft)
17.10.2013 08:10 10,1 C 91 % 1013,4 hPa 0,0 l/m 6,5 km/h (2 Bft) W 275 0 min 0,000 mm 0,0 UV-I 0 W/m 8,7 C 10,1 C 12,9 km/h (3 Bft)
17.10.2013 08:15 10,0 C 91 % 1013,4 hPa 0,0 l/m 6,3 km/h (2 Bft) W 268 0 min 0,000 mm 0,0 UV-I 5 W/m 8,6 C 10,0 C 12,9 km/h (3 Bft)
17.10.2013 08:20 10,1 C 91 % 1013,4 hPa 0,0 l/m 7,2 km/h (2 Bft) SW 225 0 min 0,000 mm 0,0 UV-I 7 W/m 8,7 C 9,5 C 14,5 km/h (3 Bft)
17.10.2013 08:25 10,1 C 91 % 1013,6 hPa 0,0 l/m 7,7 km/h (2 Bft) SW 232 0 min 0,000 mm 0,0 UV-I 7 W/m 8,7 C 9,2 C 16,1 km/h (3 Bft)
17.10.2013 08:30 10,2 C 91 % 1013,6 hPa 0,0 l/m 5,4 km/h (1 Bft) W-NW 288 0 min 0,000 mm 0,0 UV-I 7 W/m 8,8 C 10,2 C 11,3 km/h (2 Bft)
17.10.2013 08:35 10,2 C 91 % 1013,6 hPa 0,0 l/m 5,9 km/h (2 Bft) W 274 0 min 0,000 mm 0,0 UV-I 7 W/m 8,8 C 10,2 C 12,9 km/h (3 Bft)
17.10.2013 08:40 10,2 C 91 % 1013,7 hPa 0,0 l/m 5,7 km/h (1 Bft) W-NW 284 0 min 0,000 mm 0,0 UV-I 14 W/m 8,8 C 10,2 C 11,3 km/h (2 Bft)
17.10.2013 08:45 10,2 C 91 % 1013,7 hPa 0,0 l/m 5,7 km/h (1 Bft) W 277 0 min 0,000 mm 0,0 UV-I 16 W/m 8,8 C 10,2 C 12,9 km/h (3 Bft)
17.10.2013 08:50 10,2 C 91 % 1013,7 hPa 0,0 l/m 4,9 km/h (1 Bft) W-SW 240 0 min 0,000 mm 0,0 UV-I 30 W/m 8,8 C 10,2 C 14,5 km/h (3 Bft)
17.10.2013 08:55 10,2 C 91 % 1013,7 hPa 0,0 l/m 5,2 km/h (1 Bft) W-SW 257 0 min 0,000 mm 0,0 UV-I 23 W/m 8,8 C 10,2 C 12,9 km/h (3 Bft)
17.10.2013 09:00 10,3 C 91 % 1013,7 hPa 0,0 l/m 6,8 km/h (2 Bft) W-NW 289 0 min 0,000 mm 0,0 UV-I 26 W/m 8,9 C 10,0 C 16,1 km/h (3 Bft)
17.10.2013 09:05 10,3 C 91 % 1013,7 hPa 0,0 l/m 7,5 km/h (2 Bft) S-SO 165 0 min 0,000 mm 0,0 UV-I 25 W/m 8,9 C 9,5 C 16,1 km/h (3 Bft)
17.10.2013 09:10 10,4 C 90 % 1013,8 hPa 0,0 l/m 7,0 km/h (2 Bft) W-SW 240 0 min 0,000 mm 0,0 UV-I 30 W/m 8,8 C 10,0 C 16,1 km/h (3 Bft)
17.10.2013 09:15 10,5 C 90 % 1013,7 hPa 0,0 l/m 7,2 km/h (2 Bft) SW 214 0 min 0,000 mm 0,0 UV-I 23 W/m 8,9 C 9,9 C 16,1 km/h (3 Bft)
17.10.2013 09:20 10,6 C 90 % 1013,8 hPa 0,0 l/m 7,3 km/h (2 Bft) W-NW 297 0 min 0,000 mm 0,0 UV-I 23 W/m 9,0 C 10,0 C 17,7 km/h (3 Bft)
17.10.2013 09:25 10,6 C 90 % 1013,7 hPa 0,0 l/m 10,6 km/h (2 Bft) W 263 0 min 0,000 mm 0,0 UV-I 30 W/m 9,0 C 7,9 C 20,9 km/h (4 Bft)
17.10.2013 09:30 10,6 C 90 % 1013,9 hPa 0,0 l/m 7,3 km/h (2 Bft) W-SW 248 0 min 0,000 mm 0,0 UV-I 49 W/m 9,0 C 10,0 C 20,9 km/h (4 Bft)
17.10.2013 09:35 10,6 C 90 % 1013,8 hPa 0,0 l/m 7,0 km/h (2 Bft) W-SW 252 0 min 0,000 mm 0,0 UV-I 58 W/m 9,0 C 10,2 C 17,7 km/h (3 Bft)
17.10.2013 09:40 10,7 C 90 % 1013,9 hPa 0,0 l/m 8,9 km/h (2 Bft) W-SW 257 0 min 0,000 mm 0,0 UV-I 47 W/m 9,1 C 9,0 C 17,7 km/h (3 Bft)
17.10.2013 09:45 10,7 C 89 % 1014,0 hPa 0,0 l/m 9,5 km/h (2 Bft) W-NW 299 0 min 0,000 mm 0,0 UV-I 53 W/m 9,0 C 8,7 C 20,9 km/h (4 Bft)
17.10.2013 09:50 10,8 C 89 % 1014,0 hPa 0,0 l/m 11,0 km/h (2 Bft) S-SW 212 0 min 0,000 mm 0,0 UV-I 58 W/m 9,1 C 7,9 C 22,5 km/h (4 Bft)
17.10.2013 09:55 10,8 C 90 % 1014,0 hPa 0,0 l/m 8,3 km/h (2 Bft) SW 229 0 min 0,000 mm 0,0 UV-I 74 W/m 9,2 C 9,5 C 17,7 km/h (3 Bft)
17.10.2013 10:00 10,8 C 90 % 1014,0 hPa 0,0 l/m 7,9 km/h (2 Bft) SW 230 0 min 0,000 mm 0,0 UV-I 83 W/m 9,2 C 9,8 C 16,1 km/h (3 Bft)
17.10.2013 10:05 10,9 C 89 % 1013,9 hPa 0,0 l/m 9,3 km/h (2 Bft) S-SW 202 0 min 0,025 mm 0,5 UV-I 116 W/m 9,2 C 9,0 C 19,3 km/h (3 Bft)
17.10.2013 10:10 11,0 C 89 % 1013,9 hPa 0,0 l/m 11,9 km/h (2 Bft) W-NW 298 0 min 0,000 mm 0,5 UV-I 167 W/m 9,3 C 7,7 C 27,4 km/h (4 Bft)
17.10.2013 10:15 11,1 C 89 % 1013,8 hPa 0,0 l/m 11,6 km/h (2 Bft) SW 233 0 min 0,000 mm 0,5 UV-I 102 W/m 9,4 C 8,0 C 22,5 km/h (4 Bft)
17.10.2013 10:20 11,2 C 89 % 1013,9 hPa 0,0 l/m 10,7 km/h (2 Bft) W 265 0 min 0,000 mm 0,7 UV-I 132 W/m 9,5 C 8,5 C 22,5 km/h (4 Bft)
17.10.2013 10:25 11,7 C 88 % 1013,9 hPa 0,0 l/m 10,3 km/h (2 Bft) W-NW 282 5 min 0,000 mm 0,8 UV-I 345 W/m 9,8 C 9,3 C 22,5 km/h (4 Bft)
17.10.2013 10:30 11,8 C 87 % 1013,7 hPa 0,0 l/m 11,5 km/h (2 Bft) W 272 0 min 0,000 mm 0,8 UV-I 144 W/m 9,7 C 8,8 C 24,1 km/h (4 Bft)
17.10.2013 10:35 11,8 C 87 % 1013,7 hPa 0,0 l/m 10,7 km/h (2 Bft) W-SW 246 5 min 0,000 mm 0,7 UV-I 225 W/m 9,7 C 9,2 C 19,3 km/h (3 Bft)
17.10.2013 10:40 11,9 C 87 % 1013,6 hPa 0,0 l/m 10,9 km/h (2 Bft) W-SW 248 5 min 0,000 mm 0,9 UV-I 339 W/m 9,8 C 9,2 C 19,3 km/h (3 Bft)
17.10.2013 10:45 12,2 C 86 % 1013,7 hPa 0,0 l/m 12,6 km/h (3 Bft) W 266 5 min 0,000 mm 0,8 UV-I 258 W/m 9,9 C 8,8 C 25,7 km/h (4 Bft)
17.10.2013 10:50 12,2 C 85 % 1013,8 hPa 0,0 l/m 12,2 km/h (2 Bft) SW 225 0 min 0,000 mm 0,9 UV-I 192 W/m 9,8 C 9,0 C 24,1 km/h (4 Bft)
17.10.2013 10:55 12,2 C 86 % 1013,9 hPa 0,0 l/m 10,3 km/h (2 Bft) SW 219 5 min 0,000 mm 0,8 UV-I 265 W/m 9,9 C 9,9 C 19,3 km/h (3 Bft)
17.10.2013 11:00 12,2 C 85 % 1013,7 hPa 0,0 l/m 11,2 km/h (2 Bft) W-SW 246 0 min 0,000 mm 0,8 UV-I 142 W/m 9,8 C 9,4 C 24,1 km/h (4 Bft)
17.10.2013 11:05 12,2 C 84 % 1013,8 hPa 0,0 l/m 13,5 km/h (3 Bft) W-SW 241 0 min 0,127 mm 0,9 UV-I 207 W/m 9,6 C 8,4 C 27,4 km/h (4 Bft)
17.10.2013 11:10 12,3 C 85 % 1013,8 hPa 0,0 l/m 10,6 km/h (2 Bft) W 280 5 min 0,000 mm 1,0 UV-I 253 W/m 9,9 C 9,8 C 20,9 km/h (4 Bft)
17.10.2013 11:15 12,3 C 84 % 1013,7 hPa 0,0 l/m 13,0 km/h (3 Bft) W-NW 282 0 min 0,000 mm 0,6 UV-I 113 W/m 9,7 C 8,7 C 20,9 km/h (4 Bft)
17.10.2013 11:20 12,4 C 85 % 1013,7 hPa 0,0 l/m 10,1 km/h (2 Bft) W-SW 246 0 min 0,000 mm 0,7 UV-I 142 W/m 9,9 C 10,2 C 19,3 km/h (3 Bft)
17.10.2013 11:25 12,4 C 84 % 1013,7 hPa 0,0 l/m 11,2 km/h (2 Bft) W-SW 249 0 min 0,000 mm 0,7 UV-I 100 W/m 9,8 C 9,6 C 25,7 km/h (4 Bft)
17.10.2013 11:30 12,4 C 85 % 1013,6 hPa 0,0 l/m 7,1 km/h (2 Bft) W 270 0 min 0,000 mm 0,6 UV-I 77 W/m 9,9 C 11,9 C 16,1 km/h (3 Bft)
17.10.2013 11:35 12,4 C 85 % 1013,7 hPa 0,0 l/m 10,9 km/h (2 Bft) W-SW 237 0 min 0,000 mm 0,0 UV-I 56 W/m 9,9 C 9,8 C 19,3 km/h (3 Bft)
17.10.2013 11:40 12,4 C 86 % 1013,8 hPa 0,0 l/m 9,7 km/h (2 Bft) S-SO 161 5 min 0,000 mm 1,4 UV-I 281 W/m 10,1 C 10,4 C 17,7 km/h (3 Bft)
17.10.2013 11:45 12,7 C 85 % 1013,8 hPa 0,0 l/m 8,0 km/h (2 Bft) W-SW 256 0 min 0,000 mm 1,1 UV-I 146 W/m 10,2 C 11,7 C 19,3 km/h (3 Bft)
17.10.2013 11:50 12,7 C 85 % 1013,8 hPa 0,0 l/m 10,5 km/h (2 Bft) W 274 0 min 0,000 mm 1,3 UV-I 241 W/m 10,2 C 10,3 C 19,3 km/h (3 Bft)
17.10.2013 11:55 13,0 C 84 % 1013,7 hPa 0,0 l/m 10,3 km/h (2 Bft) W-SW 238 0 min 0,000 mm 1,3 UV-I 188 W/m 10,4 C 10,8 C 20,9 km/h (4 Bft)
17.10.2013 12:00 13,2 C 83 % 1013,7 hPa 0,0 l/m 9,6 km/h (2 Bft) S-SW 199 5 min 0,000 mm 1,7 UV-I 311 W/m 10,4 C 11,3 C 17,7 km/h (3 Bft)
17.10.2013 12:05 13,3 C 83 % 1013,7 hPa 0,0 l/m 12,4 km/h (3 Bft) W-NW 291 5 min 0,127 mm 1,9 UV-I 272 W/m 10,5 C 10,1 C 22,5 km/h (4 Bft)
17.10.2013 12:10 13,5 C 83 % 1013,7 hPa 0,0 l/m 13,2 km/h (3 Bft) SW 232 5 min 0,000 mm 2,1 UV-I 610 W/m 10,7 C 10,1 C 20,9 km/h (4 Bft)
17.10.2013 12:15 13,8 C 81 % 1013,5 hPa 0,0 l/m 11,9 km/h (2 Bft) W 259 5 min 0,000 mm 2,1 UV-I 647 W/m 10,6 C 10,9 C 24,1 km/h (4 Bft)
17.10.2013 12:20 13,9 C 80 % 1013,5 hPa 0,0 l/m 11,9 km/h (2 Bft) SW 214 0 min 0,000 mm 1,3 UV-I 218 W/m 10,5 C 11,0 C 29,0 km/h (5 Bft)
17.10.2013 12:25 13,8 C 81 % 1013,4 hPa 0,0 l/m 13,0 km/h (3 Bft) W-SW 241 0 min 0,000 mm 1,5 UV-I 260 W/m 10,6 C 10,5 C 22,5 km/h (4 Bft)
17.10.2013 12:30 13,8 C 80 % 1013,3 hPa 0,0 l/m 14,0 km/h (3 Bft) W 259 0 min 0,000 mm 0,5 UV-I 84 W/m 10,4 C 10,1 C 29,0 km/h (5 Bft)
17.10.2013 12:35 13,6 C 81 % 1013,3 hPa 0,0 l/m 12,7 km/h (3 Bft) W 280 0 min 0,000 mm 0,6 UV-I 120 W/m 10,4 C 10,4 C 24,1 km/h (4 Bft)
17.10.2013 12:40 13,4 C 82 % 1013,4 hPa 0,0 l/m 10,4 km/h (2 Bft) W 259 0 min 0,000 mm 0,7 UV-I 118 W/m 10,4 C 11,2 C 20,9 km/h (4 Bft)
17.10.2013 12:45 13,4 C 82 % 1013,3 hPa 0,0 l/m 10,1 km/h (2 Bft) SW 231 0 min 0,000 mm 0,7 UV-I 118 W/m 10,4 C 11,3 C 20,9 km/h (4 Bft)
17.10.2013 12:50 13,6 C 81 % 1013,3 hPa 0,0 l/m 10,6 km/h (2 Bft) W-NW 284 0 min 0,000 mm 0,9 UV-I 118 W/m 10,4 C 11,3 C 22,5 km/h (4 Bft)
17.10.2013 12:55 13,7 C 80 % 1013,2 hPa 0,0 l/m 11,9 km/h (2 Bft) SW 234 0 min 0,000 mm 0,5 UV-I 69 W/m 10,3 C 10,8 C 22,5 km/h (4 Bft)
17.10.2013 13:00 13,8 C 80 % 1013,2 hPa 0,0 l/m 11,4 km/h (2 Bft) W 265 0 min 0,000 mm 1,5 UV-I 207 W/m 10,4 C 11,1 C 22,5 km/h (4 Bft)
17.10.2013 13:05 14,2 C 79 % 1013,2 hPa 0,0 l/m 10,8 km/h (2 Bft) NW 319 5 min 0,153 mm 2,1 UV-I 568 W/m 10,6 C 11,9 C 22,5 km/h (4 Bft)
17.10.2013 13:10 14,8 C 78 % 1013,2 hPa 0,0 l/m 15,0 km/h (3 Bft) W 278 5 min 0,000 mm 2,2 UV-I 724 W/m 11,0 C 10,9 C 29,0 km/h (5 Bft)
17.10.2013 13:15 15,0 C 76 % 1013,2 hPa 0,0 l/m 15,2 km/h (3 Bft) W 264 5 min 0,000 mm 1,7 UV-I 306 W/m 10,8 C 11,1 C 29,0 km/h (5 Bft)
17.10.2013 13:20 15,1 C 75 % 1013,1 hPa 0,0 l/m 14,1 km/h (3 Bft) W 271 5 min 0,000 mm 1,6 UV-I 703 W/m 10,7 C 11,6 C 29,0 km/h (5 Bft)
17.10.2013 13:25 14,8 C 75 % 1013,0 hPa 0,0 l/m 18,6 km/h (3 Bft) W 270 0 min 0,000 mm 1,4 UV-I 186 W/m 10,4 C 9,9 C 30,6 km/h (5 Bft)
17.10.2013 13:30 14,6 C 76 % 1013,0 hPa 0,0 l/m 15,2 km/h (3 Bft) SW 234 0 min 0,000 mm 0,9 UV-I 135 W/m 10,4 C 10,6 C 29,0 km/h (5 Bft)
17.10.2013 13:35 14,4 C 77 % 1013,2 hPa 0,0 l/m 12,7 km/h (3 Bft) S 180 0 min 0,000 mm 1,1 UV-I 160 W/m 10,4 C 11,3 C 25,7 km/h (4 Bft)
17.10.2013 13:40 14,3 C 79 % 1013,0 hPa 0,0 l/m 11,7 km/h (2 Bft) W-NW 283 0 min 0,000 mm 0,7 UV-I 95 W/m 10,7 C 11,6 C 25,7 km/h (4 Bft)
17.10.2013 13:45 14,2 C 79 % 1013,0 hPa 0,0 l/m 9,9 km/h (2 Bft) NW 326 0 min 0,000 mm 0,5 UV-I 67 W/m 10,6 C 12,3 C 19,3 km/h (3 Bft)
17.10.2013 13:50 14,1 C 80 % 1013,1 hPa 0,0 l/m 8,3 km/h (2 Bft) W 275 0 min 0,000 mm 0,0 UV-I 54 W/m 10,7 C 13,0 C 20,9 km/h (4 Bft)
17.10.2013 13:55 13,9 C 81 % 1013,0 hPa 0,0 l/m 7,7 km/h (2 Bft) W-NW 298 0 min 0,000 mm 0,6 UV-I 104 W/m 10,7 C 13,1 C 16,1 km/h (3 Bft)
17.10.2013 14:00 14,0 C 80 % 1012,9 hPa 0,0 l/m 8,0 km/h (2 Bft) W 260 0 min 0,000 mm 1,0 UV-I 193 W/m 10,6 C 13,1 C 16,1 km/h (3 Bft)
17.10.2013 14:05 14,4 C 80 % 1012,8 hPa 0,0 l/m 8,8 km/h (2 Bft) W-SW 242 5 min 0,178 mm 1,8 UV-I 313 W/m 11,0 C 13,0 C 20,9 km/h (4 Bft)
17.10.2013 14:10 14,8 C 78 % 1012,6 hPa 0,0 l/m 9,3 km/h (2 Bft) W-SW 241 5 min 0,000 mm 1,4 UV-I 279 W/m 11,0 C 13,2 C 19,3 km/h (3 Bft)
17.10.2013 14:15 14,9 C 78 % 1012,7 hPa 0,0 l/m 9,3 km/h (2 Bft) W-SW 249 5 min 0,000 mm 1,3 UV-I 318 W/m 11,1 C 13,3 C 19,3 km/h (3 Bft)
17.10.2013 14:20 15,1 C 76 % 1012,6 hPa 0,0 l/m 12,8 km/h (3 Bft) SW 215 0 min 0,000 mm 1,4 UV-I 218 W/m 10,9 C 12,1 C 24,1 km/h (4 Bft)
17.10.2013 14:25 15,1 C 76 % 1012,5 hPa 0,0 l/m 12,5 km/h (3 Bft) W 271 0 min 0,000 mm 0,9 UV-I 141 W/m 10,9 C 12,2 C 24,1 km/h (4 Bft)
17.10.2013 14:30 15,0 C 75 % 1012,6 hPa 0,0 l/m 14,6 km/h (3 Bft) SW 231 0 min 0,000 mm 0,9 UV-I 162 W/m 10,6 C 11,3 C 27,4 km/h (4 Bft)
17.10.2013 14:35 15,0 C 74 % 1012,4 hPa 0,0 l/m 12,4 km/h (3 Bft) W-SW 257 0 min 0,000 mm 1,0 UV-I 171 W/m 10,4 C 12,1 C 22,5 km/h (4 Bft)
17.10.2013 14:40 15,1 C 74 % 1012,4 hPa 0,0 l/m 12,7 km/h (3 Bft) W-SW 241 5 min 0,000 mm 1,2 UV-I 329 W/m 10,5 C 12,1 C 29,0 km/h (5 Bft)
17.10.2013 14:45 15,2 C 73 % 1012,5 hPa 0,0 l/m 16,7 km/h (3 Bft) S-SW 203 0 min 0,000 mm 0,7 UV-I 144 W/m 10,4 C 10,9 C 30,6 km/h (5 Bft)
17.10.2013 14:50 15,1 C 73 % 1012,5 hPa 0,0 l/m 15,4 km/h (3 Bft) W-SW 252 0 min 0,000 mm 0,6 UV-I 90 W/m 10,3 C 11,2 C 27,4 km/h (4 Bft)
17.10.2013 14:55 15,0 C 74 % 1012,6 hPa 0,0 l/m 12,6 km/h (3 Bft) W-SW 250 0 min 0,000 mm 0,5 UV-I 72 W/m 10,4 C 12,0 C 29,0 km/h (5 Bft)
17.10.2013 15:00 14,9 C 75 % 1012,5 hPa 0,0 l/m 9,9 km/h (2 Bft) W 261 0 min 0,000 mm 0,5 UV-I 83 W/m 10,5 C 13,1 C 19,3 km/h (3 Bft)
17.10.2013 15:05 14,8 C 75 % 1012,5 hPa 0,0 l/m 12,2 km/h (2 Bft) W 276 0 min 0,152 mm 0,0 UV-I 70 W/m 10,4 C 12,0 C 24,1 km/h (4 Bft)
17.10.2013 15:10 14,7 C 76 % 1012,6 hPa 0,0 l/m 13,8 km/h (3 Bft) W 274 0 min 0,000 mm 0,7 UV-I 111 W/m 10,5 C 11,2 C 33,8 km/h (5 Bft)
17.10.2013 15:15 14,7 C 74 % 1012,6 hPa 0,0 l/m 16,8 km/h (3 Bft) W-SW 249 0 min 0,000 mm 0,6 UV-I 100 W/m 10,1 C 10,3 C 32,2 km/h (5 Bft)
17.10.2013 15:20 14,7 C 75 % 1012,6 hPa 0,0 l/m 11,7 km/h (2 Bft) W 273 0 min 0,000 mm 0,5 UV-I 81 W/m 10,3 C 12,0 C 24,1 km/h (4 Bft)
17.10.2013 15:25 14,7 C 75 % 1012,6 hPa 0,0 l/m 14,8 km/h (3 Bft) SW 229 0 min 0,000 mm 0,6 UV-I 105 W/m 10,3 C 10,9 C 30,6 km/h (5 Bft)
17.10.2013 15:30 14,7 C 76 % 1012,6 hPa 0,0 l/m 13,8 km/h (3 Bft) W-SW 240 0 min 0,000 mm 0,0 UV-I 70 W/m 10,5 C 11,2 C 24,1 km/h (4 Bft)
17.10.2013 15:35 14,6 C 78 % 1012,6 hPa 0,0 l/m 9,9 km/h (2 Bft) SW 231 0 min 0,000 mm 0,0 UV-I 74 W/m 10,8 C 12,7 C 20,9 km/h (4 Bft)
17.10.2013 15:40 14,4 C 78 % 1012,6 hPa 0,0 l/m 15,8 km/h (3 Bft) W 262 0 min 0,000 mm 0,5 UV-I 90 W/m 10,6 C 10,2 C 27,4 km/h (4 Bft)
17.10.2013 15:45 14,3 C 79 % 1012,6 hPa 0,0 l/m 12,9 km/h (3 Bft) SW 229 0 min 0,000 mm 0,5 UV-I 86 W/m 10,7 C 11,1 C 24,1 km/h (4 Bft)
17.10.2013 15:50 14,1 C 80 % 1012,7 hPa 0,0 l/m 18,4 km/h (3 Bft) W 270 0 min 0,000 mm 0,6 UV-I 144 W/m 10,7 C 9,0 C 27,4 km/h (4 Bft)
17.10.2013 15:55 14,1 C 82 % 1012,6 hPa 0,0 l/m 12,8 km/h (3 Bft) W-SW 257 5 min 0,000 mm 0,7 UV-I 200 W/m 11,1 C 10,9 C 22,5 km/h (4 Bft)
17.10.2013 16:00 14,1 C 82 % 1012,7 hPa 0,0 l/m 11,5 km/h (2 Bft) W-SW 254 0 min 0,000 mm 0,0 UV-I 69 W/m 11,1 C 11,4 C 22,5 km/h (4 Bft)
17.10.2013 16:05 14,0 C 82 % 1012,7 hPa 0,0 l/m 11,2 km/h (2 Bft) W 263 0 min 0,102 mm 0,0 UV-I 53 W/m 11,0 C 11,5 C 17,7 km/h (3 Bft)
17.10.2013 16:10 13,9 C 82 % 1012,6 hPa 0,0 l/m 9,0 km/h (2 Bft) W 265 0 min 0,000 mm 0,0 UV-I 49 W/m 10,9 C 12,4 C 17,7 km/h (3 Bft)
17.10.2013 16:15 13,9 C 83 % 1012,6 hPa 0,0 l/m 9,8 km/h (2 Bft) NW 317 0 min 0,000 mm 0,0 UV-I 58 W/m 11,1 C 12,0 C 17,7 km/h (3 Bft)
17.10.2013 16:20 13,8 C 83 % 1012,7 hPa 0,0 l/m 10,9 km/h (2 Bft) SW 234 0 min 0,000 mm 0,0 UV-I 32 W/m 11,0 C 11,4 C 25,7 km/h (4 Bft)
17.10.2013 16:25 13,7 C 84 % 1012,7 hPa 0,0 l/m 10,7 km/h (2 Bft) W-SW 248 0 min 0,000 mm 0,0 UV-I 18 W/m 11,0 C 11,3 C 20,9 km/h (4 Bft)
17.10.2013 16:30 13,5 C 85 % 1012,8 hPa 0,0 l/m 9,8 km/h (2 Bft) W 271 0 min 0,000 mm 0,0 UV-I 14 W/m 11,0 C 11,6 C 17,7 km/h (3 Bft)
17.10.2013 16:35 13,3 C 87 % 1012,8 hPa 0,0 l/m 8,8 km/h (2 Bft) W-NW 291 0 min 0,000 mm 0,0 UV-I 40 W/m 11,2 C 11,9 C 22,5 km/h (4 Bft)
17.10.2013 16:40 13,1 C 88 % 1012,8 hPa 0,2 l/m 10,2 km/h (2 Bft) W 266 0 min 0,000 mm 0,0 UV-I 40 W/m 11,2 C 10,9 C 24,1 km/h (4 Bft)
17.10.2013 16:45 12,8 C 89 % 1012,8 hPa 0,0 l/m 9,2 km/h (2 Bft) S-SW 207 0 min 0,000 mm 0,0 UV-I 19 W/m 11,0 C 11,1 C 17,7 km/h (3 Bft)
17.10.2013 16:50 12,6 C 90 % 1012,8 hPa 0,0 l/m 9,4 km/h (2 Bft) S-SW 196 0 min 0,000 mm 0,0 UV-I 25 W/m 11,0 C 10,8 C 19,3 km/h (3 Bft)
17.10.2013 16:55 12,5 C 91 % 1012,7 hPa 0,0 l/m 8,6 km/h (2 Bft) W-SW 254 0 min 0,000 mm 0,0 UV-I 32 W/m 11,1 C 11,1 C 16,1 km/h (3 Bft)
17.10.2013 17:00 12,4 C 91 % 1012,8 hPa 0,0 l/m 10,3 km/h (2 Bft) W 275 0 min 0,000 mm 0,0 UV-I 12 W/m 11,0 C 10,1 C 22,5 km/h (4 Bft)
17.10.2013 17:05 12,4 C 91 % 1012,8 hPa 0,0 l/m 7,6 km/h (2 Bft) W-NW 301 0 min 0,025 mm 0,0 UV-I 23 W/m 11,0 C 11,6 C 19,3 km/h (3 Bft)
17.10.2013 17:10 12,4 C 90 % 1012,9 hPa 0,0 l/m 10,8 km/h (2 Bft) SW 218 0 min 0,000 mm 0,0 UV-I 42 W/m 10,8 C 9,8 C 20,9 km/h (4 Bft)
17.10.2013 17:15 12,5 C 90 % 1012,8 hPa 0,0 l/m 10,0 km/h (2 Bft) W-SW 238 0 min 0,000 mm 0,0 UV-I 18 W/m 10,9 C 10,4 C 22,5 km/h (4 Bft)
17.10.2013 17:20 12,5 C 90 % 1012,8 hPa 0,0 l/m 9,0 km/h (2 Bft) W 281 0 min 0,000 mm 0,0 UV-I 23 W/m 10,9 C 10,9 C 19,3 km/h (3 Bft)
17.10.2013 17:25 12,5 C 89 % 1012,9 hPa 0,0 l/m 12,3 km/h (3 Bft) S-SW 211 0 min 0,000 mm 0,0 UV-I 18 W/m 10,7 C 9,3 C 24,1 km/h (4 Bft)
17.10.2013 17:30 12,5 C 89 % 1012,8 hPa 0,0 l/m 9,4 km/h (2 Bft) SW 215 0 min 0,000 mm 0,0 UV-I 25 W/m 10,7 C 10,7 C 20,9 km/h (4 Bft)
17.10.2013 17:35 12,4 C 89 % 1012,8 hPa 0,0 l/m 10,0 km/h (2 Bft) S-SW 209 0 min 0,000 mm 0,0 UV-I 16 W/m 10,6 C 10,2 C 17,7 km/h (3 Bft)
17.10.2013 17:40 12,3 C 90 % 1012,7 hPa 0,0 l/m 10,0 km/h (2 Bft) W-SW 254 0 min 0,000 mm 0,0 UV-I 7 W/m 10,7 C 10,1 C 19,3 km/h (3 Bft)
17.10.2013 17:45 12,3 C 90 % 1012,8 hPa 0,0 l/m 10,2 km/h (2 Bft) S-SW 208 0 min 0,000 mm 0,0 UV-I 5 W/m 10,7 C 10,0 C 22,5 km/h (4 Bft)
17.10.2013 17:50 12,3 C 90 % 1012,8 hPa 0,2 l/m 7,8 km/h (2 Bft) W 278 0 min 0,000 mm 0,0 UV-I 5 W/m 10,7 C 11,4 C 14,5 km/h (3 Bft)
17.10.2013 17:55 12,2 C 91 % 1012,8 hPa 0,0 l/m 7,4 km/h (2 Bft) W 263 0 min 0,000 mm 0,0 UV-I 5 W/m 10,8 C 11,5 C 17,7 km/h (3 Bft)
17.10.2013 18:00 12,2 C 91 % 1012,8 hPa 0,0 l/m 6,3 km/h (2 Bft) W-NW 292 0 min 0,000 mm 0,0 UV-I 9 W/m 10,8 C 12,2 C 19,3 km/h (3 Bft)
17.10.2013 18:05 12,2 C 91 % 1012,8 hPa 0,0 l/m 8,4 km/h (2 Bft) W-SW 256 0 min 0,025 mm 0,0 UV-I 9 W/m 10,8 C 10,9 C 19,3 km/h (3 Bft)
17.10.2013 18:10 12,2 C 90 % 1012,9 hPa 0,0 l/m 8,0 km/h (2 Bft) W 267 0 min 0,000 mm 0,0 UV-I 7 W/m 10,6 C 11,2 C 16,1 km/h (3 Bft)
17.10.2013 18:15 12,3 C 90 % 1012,9 hPa 0,0 l/m 9,1 km/h (2 Bft) SW 232 0 min 0,000 mm 0,0 UV-I 5 W/m 10,7 C 10,6 C 19,3 km/h (3 Bft)
17.10.2013 18:20 12,3 C 89 % 1013,0 hPa 0,0 l/m 9,0 km/h (2 Bft) W-SW 254 0 min 0,000 mm 0,0 UV-I 7 W/m 10,5 C 10,7 C 20,9 km/h (4 Bft)
17.10.2013 18:25 12,4 C 89 % 1013,0 hPa 0,0 l/m 9,8 km/h (2 Bft) NW 310 0 min 0,000 mm 0,0 UV-I 0 W/m 10,6 C 10,4 C 20,9 km/h (4 Bft)
17.10.2013 18:30 12,4 C 88 % 1013,1 hPa 0,0 l/m 6,7 km/h (2 Bft) W 277 0 min 0,000 mm 0,0 UV-I 0 W/m 10,5 C 12,2 C 12,9 km/h (3 Bft)
17.10.2013 18:35 12,4 C 88 % 1013,0 hPa 0,0 l/m 10,0 km/h (2 Bft) W-NW 293 0 min 0,000 mm 0,0 UV-I 0 W/m 10,5 C 10,2 C 17,7 km/h (3 Bft)
17.10.2013 18:40 12,4 C 88 % 1013,0 hPa 0,0 l/m 7,1 km/h (2 Bft) SW 232 0 min 0,000 mm 0,0 UV-I 0 W/m 10,5 C 11,9 C 14,5 km/h (3 Bft)
17.10.2013 18:45 12,4 C 88 % 1013,1 hPa 0,0 l/m 11,5 km/h (2 Bft) W-SW 246 0 min 0,000 mm 0,0 UV-I 0 W/m 10,5 C 9,5 C 24,1 km/h (4 Bft)
17.10.2013 18:50 12,4 C 88 % 1013,1 hPa 0,0 l/m 8,3 km/h (2 Bft) W-SW 244 0 min 0,000 mm 0,0 UV-I 0 W/m 10,5 C 11,2 C 17,7 km/h (3 Bft)
17.10.2013 18:55 12,4 C 87 % 1013,3 hPa 0,0 l/m 11,0 km/h (2 Bft) W 265 0 min 0,000 mm 0,0 UV-I 0 W/m 10,3 C 9,7 C 24,1 km/h (4 Bft)
17.10.2013 19:00 12,6 C 87 % 1013,3 hPa 0,0 l/m 13,5 km/h (3 Bft) W-SW 250 0 min 0,000 mm 0,0 UV-I 0 W/m 10,5 C 8,9 C 30,6 km/h (5 Bft)
17.10.2013 19:05 12,6 C 87 % 1013,3 hPa 0,0 l/m 7,7 km/h (2 Bft) W-NW 284 0 min 0,026 mm 0,0 UV-I 0 W/m 10,5 C 11,8 C 14,5 km/h (3 Bft)
17.10.2013 19:10 12,6 C 86 % 1013,5 hPa 0,0 l/m 6,4 km/h (2 Bft) W 265 0 min 0,000 mm 0,0 UV-I 0 W/m 10,3 C 12,6 C 12,9 km/h (3 Bft)
17.10.2013 19:15 12,6 C 86 % 1013,5 hPa 0,0 l/m 6,6 km/h (2 Bft) W-NW 293 0 min 0,000 mm 0,0 UV-I 0 W/m 10,3 C 12,5 C 14,5 km/h (3 Bft)
17.10.2013 19:20 12,5 C 87 % 1013,6 hPa 0,0 l/m 4,4 km/h (1 Bft) W-NW 293 0 min 0,000 mm 0,0 UV-I 0 W/m 10,4 C 12,5 C 9,7 km/h (2 Bft)
17.10.2013 19:25 12,6 C 86 % 1013,7 hPa 0,0 l/m 6,0 km/h (2 Bft) W 277 0 min 0,000 mm 0,0 UV-I 0 W/m 10,3 C 12,6 C 14,5 km/h (3 Bft)
17.10.2013 19:30 12,6 C 85 % 1013,7 hPa 0,0 l/m 9,9 km/h (2 Bft) W 262 0 min 0,000 mm 0,0 UV-I 0 W/m 10,1 C 10,5 C 30,6 km/h (5 Bft)
17.10.2013 19:35 12,6 C 85 % 1013,7 hPa 0,0 l/m 8,7 km/h (2 Bft) W-NW 295 0 min 0,000 mm 0,0 UV-I 0 W/m 10,1 C 11,2 C 14,5 km/h (3 Bft)
17.10.2013 19:40 12,6 C 85 % 1013,7 hPa 0,0 l/m 7,9 km/h (2 Bft) W-SW 240 0 min 0,000 mm 0,0 UV-I 0 W/m 10,1 C 11,6 C 12,9 km/h (3 Bft)
17.10.2013 19:45 12,6 C 85 % 1013,8 hPa 0,0 l/m 8,6 km/h (2 Bft) W-SW 245 0 min 0,000 mm 0,0 UV-I 0 W/m 10,1 C 11,2 C 17,7 km/h (3 Bft)
17.10.2013 19:50 12,6 C 84 % 1013,8 hPa 0,0 l/m 10,6 km/h (2 Bft) W-SW 252 0 min 0,000 mm 0,0 UV-I 0 W/m 10,0 C 10,2 C 19,3 km/h (3 Bft)
17.10.2013 19:55 12,6 C 84 % 1013,9 hPa 0,0 l/m 10,3 km/h (2 Bft) W 279 0 min 0,000 mm 0,0 UV-I 0 W/m 10,0 C 10,3 C 17,7 km/h (3 Bft)
17.10.2013 20:00 12,6 C 84 % 1013,9 hPa 0,0 l/m 10,5 km/h (2 Bft) W-NW 296 0 min 0,000 mm 0,0 UV-I 0 W/m 10,0 C 10,2 C 17,7 km/h (3 Bft)
17.10.2013 20:05 12,4 C 85 % 1014,0 hPa 0,0 l/m 9,4 km/h (2 Bft) W-NW 288 0 min 0,025 mm 0,0 UV-I 0 W/m 9,9 C 10,6 C 20,9 km/h (4 Bft)
17.10.2013 20:10 12,3 C 86 % 1014,0 hPa 0,0 l/m 9,2 km/h (2 Bft) SW 229 0 min 0,000 mm 0,0 UV-I 0 W/m 10,0 C 10,6 C 14,5 km/h (3 Bft)
17.10.2013 20:15 12,2 C 87 % 1014,1 hPa 0,0 l/m 10,0 km/h (2 Bft) W 273 0 min 0,000 mm 0,0 UV-I 0 W/m 10,1 C 10,0 C 16,1 km/h (3 Bft)
17.10.2013 20:20 12,1 C 87 % 1014,0 hPa 0,0 l/m 9,4 km/h (2 Bft) W 278 0 min 0,000 mm 0,0 UV-I 0 W/m 10,0 C 10,2 C 24,1 km/h (4 Bft)
17.10.2013 20:25 12,1 C 87 % 1014,1 hPa 0,0 l/m 7,3 km/h (2 Bft) W-NW 298 0 min 0,000 mm 0,0 UV-I 0 W/m 10,0 C 11,5 C 19,3 km/h (3 Bft)
17.10.2013 20:30 12,0 C 88 % 1014,2 hPa 0,0 l/m 6,0 km/h (2 Bft) W 277 0 min 0,000 mm 0,0 UV-I 0 W/m 10,1 C 12,0 C 12,9 km/h (3 Bft)
17.10.2013 20:35 11,9 C 88 % 1014,2 hPa 0,0 l/m 6,7 km/h (2 Bft) W-NW 283 0 min 0,000 mm 0,0 UV-I 0 W/m 10,0 C 11,7 C 11,3 km/h (2 Bft)
17.10.2013 20:40 11,8 C 89 % 1014,2 hPa 0,0 l/m 5,3 km/h (1 Bft) W 277 0 min 0,000 mm 0,0 UV-I 0 W/m 10,0 C 11,8 C 9,7 km/h (2 Bft)
17.10.2013 20:45 11,7 C 89 % 1014,3 hPa 0,0 l/m 5,1 km/h (1 Bft) W-SW 242 0 min 0,000 mm 0,0 UV-I 0 W/m 9,9 C 11,7 C 11,3 km/h (2 Bft)
17.10.2013 20:50 11,7 C 89 % 1014,2 hPa 0,0 l/m 6,5 km/h (2 Bft) W 281 0 min 0,000 mm 0,0 UV-I 0 W/m 9,9 C 11,7 C 14,5 km/h (3 Bft)
17.10.2013 20:55 11,6 C 90 % 1014,4 hPa 0,0 l/m 6,5 km/h (2 Bft) W-NW 290 0 min 0,000 mm 0,0 UV-I 0 W/m 10,0 C 11,6 C 11,3 km/h (2 Bft)
17.10.2013 21:00 11,5 C 90 % 1014,4 hPa 0,0 l/m 4,3 km/h (1 Bft) W-NW 295 0 min 0,000 mm 0,0 UV-I 0 W/m 9,9 C 11,5 C 9,7 km/h (2 Bft)
17.10.2013 21:05 11,4 C 90 % 1014,6 hPa 0,0 l/m 7,0 km/h (2 Bft) W-NW 298 0 min 0,026 mm 0,0 UV-I 0 W/m 9,8 C 11,0 C 12,9 km/h (3 Bft)
17.10.2013 21:10 11,4 C 89 % 1014,7 hPa 0,0 l/m 5,8 km/h (2 Bft) W-NW 284 0 min 0,000 mm 0,0 UV-I 0 W/m 9,7 C 11,4 C 9,7 km/h (2 Bft)
17.10.2013 21:15 11,4 C 89 % 1014,7 hPa 0,0 l/m 5,6 km/h (1 Bft) NW 305 0 min 0,000 mm 0,0 UV-I 0 W/m 9,7 C 11,4 C 14,5 km/h (3 Bft)
17.10.2013 21:20 11,4 C 89 % 1014,8 hPa 0,0 l/m 4,7 km/h (1 Bft) W-SW 250 0 min 0,000 mm 0,0 UV-I 0 W/m 9,7 C 11,4 C 9,7 km/h (2 Bft)
17.10.2013 21:25 11,3 C 88 % 1014,8 hPa 0,0 l/m 6,4 km/h (2 Bft) W-SW 243 0 min 0,000 mm 0,0 UV-I 0 W/m 9,4 C 11,3 C 12,9 km/h (3 Bft)
17.10.2013 21:30 11,3 C 89 % 1014,8 hPa 0,0 l/m 5,3 km/h (1 Bft) W 272 0 min 0,000 mm 0,0 UV-I 0 W/m 9,6 C 11,3 C 12,9 km/h (3 Bft)
17.10.2013 21:35 11,2 C 89 % 1014,9 hPa 0,0 l/m 3,8 km/h (1 Bft) W-NW 283 0 min 0,000 mm 0,0 UV-I 0 W/m 9,5 C 11,2 C 9,7 km/h (2 Bft)
17.10.2013 21:40 11,1 C 89 % 1015,0 hPa 0,0 l/m 4,4 km/h (1 Bft) W 281 0 min 0,000 mm 0,0 UV-I 0 W/m 9,4 C 11,1 C 11,3 km/h (2 Bft)
17.10.2013 21:45 11,1 C 89 % 1015,0 hPa 0,0 l/m 2,2 km/h (1 Bft) W 281 0 min 0,000 mm 0,0 UV-I 0 W/m 9,4 C 11,1 C 8,0 km/h (2 Bft)
17.10.2013 21:50 10,9 C 89 % 1015,0 hPa 0,0 l/m 3,0 km/h (1 Bft) W-NW 286 0 min 0,000 mm 0,0 UV-I 0 W/m 9,2 C 10,9 C 6,4 km/h (2 Bft)
17.10.2013 21:55 10,9 C 90 % 1015,0 hPa 0,0 l/m 3,8 km/h (1 Bft) W-NW 291 0 min 0,000 mm 0,0 UV-I 0 W/m 9,3 C 10,9 C 8,0 km/h (2 Bft)
17.10.2013 22:00 10,8 C 90 % 1015,1 hPa 0,0 l/m 3,7 km/h (1 Bft) W 271 0 min 0,000 mm 0,0 UV-I 0 W/m 9,2 C 10,8 C 8,0 km/h (2 Bft)
17.10.2013 22:05 10,7 C 90 % 1015,1 hPa 0,0 l/m 4,0 km/h (1 Bft) W 272 0 min 0,000 mm 0,0 UV-I 0 W/m 9,1 C 10,7 C 8,0 km/h (2 Bft)
17.10.2013 22:10 10,6 C 90 % 1015,1 hPa 0,0 l/m 4,6 km/h (1 Bft) NW 307 0 min 0,000 mm 0,0 UV-I 0 W/m 9,0 C 10,6 C 8,0 km/h (2 Bft)
17.10.2013 22:15 10,6 C 91 % 1015,2 hPa 0,0 l/m 5,2 km/h (1 Bft) W 277 0 min 0,000 mm 0,0 UV-I 0 W/m 9,2 C 10,6 C 9,7 km/h (2 Bft)
17.10.2013 22:20 10,7 C 91 % 1015,3 hPa 0,0 l/m 5,4 km/h (1 Bft) W 267 0 min 0,000 mm 0,0 UV-I 0 W/m 9,3 C 10,7 C 9,7 km/h (2 Bft)
17.10.2013 22:25 10,7 C 90 % 1015,3 hPa 0,0 l/m 5,6 km/h (1 Bft) NW 306 0 min 0,000 mm 0,0 UV-I 0 W/m 9,1 C 10,7 C 11,3 km/h (2 Bft)
17.10.2013 22:30 10,7 C 90 % 1015,3 hPa 0,0 l/m 4,7 km/h (1 Bft) W-NW 295 0 min 0,000 mm 0,0 UV-I 0 W/m 9,1 C 10,7 C 8,0 km/h (2 Bft)
17.10.2013 22:35 10,7 C 90 % 1015,4 hPa 0,0 l/m 6,8 km/h (2 Bft) W-SW 244 0 min 0,000 mm 0,0 UV-I 0 W/m 9,1 C 10,4 C 11,3 km/h (2 Bft)
17.10.2013 22:39 10,7 C 90 % 1015,5 hPa 0,0 l/m 6,3 km/h (2 Bft) NW 304 0 min 0,000 mm 0,0 UV-I 0 W/m 9,1 C 10,7 C 11,3 km/h (2 Bft)
17.10.2013 22:40 10,7 C 90 % 1015,5 hPa 0,0 l/m 4,5 km/h (1 Bft) W-NW 303 0 min 0,000 mm 0,0 UV-I 0 W/m 9,1 C 10,7 C 6,4 km/h (2 Bft)
17.10.2013 22:45 10,7 C 89 % 1015,6 hPa 0,0 l/m 7,2 km/h (2 Bft) W-SW 253 0 min 0,000 mm 0,0 UV-I 0 W/m 9,0 C 10,1 C 12,9 km/h (3 Bft)
17.10.2013 22:50 10,8 C 89 % 1015,6 hPa 0,0 l/m 5,4 km/h (1 Bft) W-NW 286 0 min 0,000 mm 0,0 UV-I 0 W/m 9,1 C 10,8 C 12,9 km/h (3 Bft)
17.10.2013 22:55 10,8 C 89 % 1015,7 hPa 0,0 l/m 3,4 km/h (1 Bft) W 281 0 min 0,000 mm 0,0 UV-I 0 W/m 9,1 C 10,8 C 9,7 km/h (2 Bft)
17.10.2013 23:00 10,8 C 89 % 1015,8 hPa 0,0 l/m 2,7 km/h (1 Bft) W-NW 293 0 min 0,000 mm 0,0 UV-I 0 W/m 9,1 C 10,8 C 9,7 km/h (2 Bft)
17.10.2013 23:05 10,7 C 89 % 1015,7 hPa 0,0 l/m 2,8 km/h (1 Bft) W-NW 286 0 min 0,000 mm 0,0 UV-I 0 W/m 9,0 C 10,7 C 8,0 km/h (2 Bft)
17.10.2013 23:10 10,7 C 89 % 1015,8 hPa 0,0 l/m 4,1 km/h (1 Bft) W 273 0 min 0,000 mm 0,0 UV-I 0 W/m 9,0 C 10,7 C 9,7 km/h (2 Bft)
17.10.2013 23:15 10,7 C 89 % 1015,8 hPa 0,0 l/m 3,4 km/h (1 Bft) W 275 0 min 0,000 mm 0,0 UV-I 0 W/m 9,0 C 10,7 C 6,4 km/h (2 Bft)
17.10.2013 23:20 10,7 C 89 % 1015,8 hPa 0,0 l/m 4,1 km/h (1 Bft) W 272 0 min 0,000 mm 0,0 UV-I 0 W/m 9,0 C 10,7 C 8,0 km/h (2 Bft)
17.10.2013 23:25 10,7 C 89 % 1015,9 hPa 0,0 l/m 4,1 km/h (1 Bft) W 278 0 min 0,000 mm 0,0 UV-I 0 W/m 9,0 C 10,7 C 8,0 km/h (2 Bft)
17.10.2013 23:30 10,6 C 90 % 1015,9 hPa 0,0 l/m 4,7 km/h (1 Bft) W 271 0 min 0,000 mm 0,0 UV-I 0 W/m 9,0 C 10,6 C 8,0 km/h (2 Bft)
17.10.2013 23:35 10,7 C 90 % 1015,9 hPa 0,0 l/m 4,9 km/h (1 Bft) W 276 0 min 0,000 mm 0,0 UV-I 0 W/m 9,1 C 10,7 C 8,0 km/h (2 Bft)
17.10.2013 23:40 10,6 C 90 % 1015,9 hPa 0,0 l/m 4,6 km/h (1 Bft) W 276 0 min 0,000 mm 0,0 UV-I 0 W/m 9,0 C 10,6 C 8,0 km/h (2 Bft)
17.10.2013 23:45 10,6 C 90 % 1016,0 hPa 0,0 l/m 2,0 km/h (1 Bft) W 273 0 min 0,000 mm 0,0 UV-I 0 W/m 9,0 C 10,6 C 4,8 km/h (1 Bft)
17.10.2013 23:50 10,5 C 90 % 1016,0 hPa 0,0 l/m 3,8 km/h (1 Bft) W 275 0 min 0,000 mm 0,0 UV-I 0 W/m 8,9 C 10,5 C 8,0 km/h (2 Bft)
17.10.2013 23:55 10,5 C 90 % 1016,0 hPa 0,0 l/m 5,4 km/h (1 Bft) W-NW 289 0 min 0,000 mm 0,0 UV-I 0 W/m 8,9 C 10,5 C 11,3 km/h (2 Bft)
_ Min-Zeit 00:20 14:45 03:10 - 00:00 - - - - - - 00:20 10:10 00:15
Minimum _ 8,8 C 73 % 1012,2 hPa - 0,0 km/h (0 Bft) - - - - - - 7,7 C 7,7 C 0,0 km/h (0 Bft)
_ Max-Zeit 14:45 05:50 23:45 00:40 13:25 - - 10:25 14:05 13:10 13:10 16:35 14:15 15:10
Maximum _ 15,2 C 95 % 1016,0 hPa 0,2 l/m 18,6 km/h
W (3 Bft)
- - 5 min 0,178 mm 2,2 UV-I 724 W/m 11,2 C 13,3 C 33,8 km/h
W-SW (5 Bft)
Durchschnitt _ 11,3 C 88 % 1013,3 hPa #0,8 l/m 6,6 km/h (2 Bft) W - #1:40 h #0,991 mm 1,0 UV-I 126 W/m 9,4 C 10,2 C 14,2 km/h (3 Bft)